Location: ?????????
(41.2286°N, 23.0068°E)
Time: 08:42:54
(UTC+00:00)

Cosmos 1782 Rocket - Pass Details

Date: 08 November 2025
Orbit: 600 x 626 km, 82.5° (Epoch: 04 December)

Event Time Altitude Azimuth Distance (km) Brightness Sun altitude
Rises 03:56:15 0° 350° (N) 2,902 6.8 -13.7°
Reaches altitude 10° 03:58:29 10° 350° (N) 1,987 6.0 -13.3°
Maximum altitude 04:02:53 80° 263° (W) 628 3.4 -12.5°
Drops below altitude 10° 04:07:13 10° 178° (S) 1,955 6.3 -11.7°
Sets 04:09:24 0° 177° (S) 2,850 7.2 -11.3°
